Date,TemperatureHighF,TemperatureAvgF,TemperatureLowF,DewpointHighF,DewpointAvgF,DewpointLowF,HumidityHigh,HumidityAvg,HumidityLow,PressureMaxIn,PressureMinIn,WindSpeedMaxMPH,WindSpeedAvgMPH,GustSpeedMaxMPH,PrecipitationSumIn
2013-9-4,81.8,79.6,78.5,77.0,75.4,75.0,89,87,84,29.93,29.88,9,4,12,0.02
2013-9-11,81.3,76.0,75.6,78.0,65.3,-99.9,90,84,84,29.98,29.84,8,-25,13,0.59
2013-9-12,82.9,79.9,77.5,78.0,75.4,73.0,90,86,79,29.88,29.72,11,4,16,0.04
2013-9-13,82.5,78.5,74.5,77.0,74.9,71.0,90,89,81,29.85,29.72,13,5,17,0.43
2013-9-14,84.1,79.8,74.0,79.0,76.1,71.0,90,88,82,29.94,29.80,17,10,26,0.15
2013-9-15,82.8,79.2,76.9,78.0,75.5,73.0,90,88,84,30.00,29.88,12,5,21,0.58
2013-9-16,84.6,79.1,76.0,79.0,75.4,73.0,90,88,80,29.94,29.83,14,4,18,1.05
2013-9-17,82.4,77.7,74.8,78.0,74.2,71.0,90,89,84,29.96,29.82,16,4,20,1.24
2013-9-18,83.9,79.1,77.0,78.0,75.3,74.0,89,88,81,29.96,29.84,15,4,19,0.39
2013-9-19,87.9,80.6,77.2,80.0,75.7,73.0,89,85,73,30.00,29.89,14,4,18,0.02
2013-9-20,88.3,80.0,77.2,81.0,75.5,74.0,89,86,76,29.99,29.87,7,2,13,0.00
2013-9-21,84.6,80.0,76.9,78.0,74.9,73.0,89,84,75,29.95,29.85,11,3,15,0.00
2013-9-22,86.0,79.8,76.7,78.0,74.5,73.0,89,84,74,29.98,29.89,13,4,16,0.00
2013-9-23,87.2,80.1,76.5,78.0,75.1,73.0,88,84,71,30.04,29.93,15,4,18,0.03
2013-9-24,84.5,79.5,76.4,78.0,74.8,73.0,88,85,72,30.01,29.89,13,4,22,0.00
2013-9-25,85.0,79.7,73.2,78.0,74.9,70.0,89,85,76,29.97,29.85,14,5,18,0.19
2013-9-26,84.5,79.8,77.0,78.0,74.7,73.0,88,84,73,29.96,29.84,12,3,17,0.00
2013-9-27,89.4,81.3,77.1,79.0,75.6,73.0,88,83,66,29.98,29.86,8,2,10,0.00
2013-9-28,84.3,80.5,77.7,79.0,76.1,74.0,88,86,80,29.99,29.87,18,5,23,0.13
2013-9-29,86.9,81.1,74.9,79.0,75.4,71.0,88,83,71,29.99,29.87,17,3,22,0.07
2013-9-30,86.2,80.1,75.2,78.0,74.9,71.0,88,84,73,29.98,29.86,15,4,23,0.26